> Flugplatz > 
Bitte achten Sie beim Anflug auf mögliche Fallschirmspringer auf der Nord seite desPlatzes, kontaktieren Sie zur Sicherheit den Flugleiter auf Leutkirch INFO 122,875.
Zollabfertigung:
für Ein- und Ausflug bei Voranmeldung mindestens 3 Stunden, nur Personenverkehr – keine Warenabfertigung.
Günstig Tanken:
Avgas 100 II · Super 95 · Jet A1 · Diesel
Achtung! Sommer-Öffnungszeiten:
15.03.2016 – 31.10.2016:
Täglich 09:00 – SS+30/20:00 (loc)
So/Hol  10:30 – SS+30/20:00 (loc)

Weitere Informationen finden Sie in unserem Newsbereich.

Nutzen Sie unsere Online-Anmeldung zur Zoll- und Passkontrolle.
Aktuelles:
Sicherheits- und Servicehinweise:
2016/07/29 19:50 EDJA 291950Z 21006KT 9999 BKN060 OVC140 19/14 Q1017
2016/07/30 02:50 EDNY 300250Z AUTO 00000KT 4900 0300/ R24/1400VP2000N BCFG 15/15 Q1016
2016/07/30 02:20 ETHL 300220Z VRB01KT 9999 FEW060 14/13 Q1017 BLU+
Aktuelle METAR Daten (Memmingen, Friedrichshafen, Laupheim):